Simultaneous Nadir Overpasses (SNOs) Predictions

Prediction of SNOs between AQUA and NPP Satellite Orbit:

Table of predicted SNOs for the next 14.0 days since TLE Epoch: 11/21/2020
Index Date (AQUA) Time (AQUA) Lat,Lon (AQUA) SZA (AQUA ) Date (NPP) Time (NPP) Lat,Lon (NPP) SZA (NPP ) Distance(km) Time Diff (sec)
1 11/21/2020 21:48:54 -75.03, -90.93 62.90 11/21/2020 21:47:50 -75.02, -90.99 62.82 1.76 64
2 11/21/2020 22:37:50 76.50, 81.10 115.57 11/21/2020 22:38:02 76.51, 81.20 115.54 2.75 12
3 11/24/2020 14:05:16 -75.43, 26.02 62.73 11/24/2020 14:04:35 -75.42, 25.96 62.67 2.05 41
4 11/24/2020 14:54:14 76.79,-162.05 115.84 11/24/2020 14:54:49 76.79,-161.95 115.79 2.56 35
5 11/27/2020 06:21:38 -75.81, 143.01 62.59 11/27/2020 06:21:20 -75.80, 142.95 62.56 1.73 18
6 11/27/2020 07:10:45 76.73, -46.38 116.44 11/27/2020 07:11:44 76.72, -46.48 116.41 3.00 59
7 11/29/2020 21:48:59 74.88, 88.68 118.86 11/29/2020 21:47:47 74.88, 88.61 118.95 2.14 72
8 11/29/2020 22:37:59 -76.23, -99.81 62.54 11/29/2020 22:38:04 -76.23, -99.83 62.54 0.81 5
9 12/02/2020 14:05:17 75.41,-154.03 118.77 12/02/2020 14:04:28 75.41,-154.06 118.83 0.97 49
